Weather in Vysotskoye

Russia / Stavropol Krai     45°01′28″N   42°54′12″E
temp.,
°C
wind,
m/s
gust,
m/s
humid.,
%
clouds,
%
prec.,
mm/h
press.,
hPa
HPBL,
m
24 september, fri
fri2400:00+10ne2582100 0.0 1012280
03:00+10n1385100 0.7 1011223
06:00+9nnw4595100 5.6 1012347
09:00+9nw2293100 8.8 1013271
12:00+12wnw3481100 0.3 1014672
15:00+14w4670100 0.3 1013820
18:00+12wnw347870 0.0 101387
21:00+10wsw32785 0.0 101431
25 september, sat
sat2500:00+10sw227599 0.0 101412
03:00+9sse2273100 0.0 101315
06:00+10se41082100 0.0 1012260
09:00+14sse71269100 0.0 1010677
12:00+17wsw5656100 0.3 10111253
15:00+11sw7983100 3.4 1014557
18:00+12wsw3577100 0.1 1015219
21:00+10w6127990 0.3 1017566
26 september, sun
sun2600:00+9w5128364 0.0 1018504
03:00+9w614895 0.0 1019539
06:00+8w5138970 0.0 1020415
09:00+13w8146878 0.1 10191291
12:00+15wnw91457100 0.1 10181785
15:00+14w8146656 0.1 10181103
18:00+15w81664100 0.0 1016875
21:00+15w91764100 0.2 1015910
27 september, mon
mon2700:00+14w11197862 0.6 10141121
03:00+14wnw101782100 0.9 10141240
06:00+11nw61382100 0.2 10151001
09:00+12wnw7126751 0.2 10161170
12:00+15wnw914430 0.0 10161505
15:00+16wnw810401 0.0 10161558
18:00+12wnw48542 0.0 1018242
21:00+10wnw22662 0.0 101920
28 september, tue
tue2800:00+9w22682 0.0 101916
03:00+8w11730 0.0 102010
06:00+7wnw11773 0.0 102110
09:00+12ne22640 0.0 1021500
12:00+15ene334919 0.0 10201475
15:00+17ene324365 0.0 10201769
18:00+15ene334789 0.0 102176
21:00+15e344698 0.0 1022121